Theta_e
314 313 315 315 315 315 314 314 314 315 314 314 316 318 322 323 324 325 330 330 330 333 335 332 334 334 334 334 337 337 335 336 335 340 341 342 341 339 344 345 345 344 348 347
313 313 313 314 314 314 314 314 314 315 314 314 316 316 318 322 324 325 328 331 331 332 332 336 335 336 338 337 334 334 337 335 331 342 339 342 341 341 342 345 345 346 348 348
312 312 313 314 314 314 314 314 314 314 314 314 314 316 317 319 322 324 327 329 330 331 334 333 336 338 337 336 336 336 334 333 336 341 343 338 339 341 348 347 347 347 348 348
311 312 312 314 314 313 314 313 313 313 313 313 313 315 319 318 322 324 325 328 330 330 331 334 336 340 340 337 334 332 331 330 334 337 339 342 344 347 347 348 349 349 348 349
310 312 312 315 314 315 314 312 312 312 313 313 312 314 315 319 321 324 325 327 329 329 329 331 334 336 333 332 331 330 331 336 335 339 343 339 347 346 348 348 350 350 348 349
312 312 314 314 314 315 313 312 311 311 311 312 312 313 314 317 322 324 325 325 327 329 328 328 331 331 331 331 332 331 329 339 335 339 340 341 345 345 349 348 353 351 349 347
313 311 313 314 315 315 313 312 313 311 312 315 313 312 314 316 318 322 325 326 327 327 328 329 330 330 332 331 329 330 335 338 340 341 342 344 349 344 354 353 352 350 347 346
312 313 313 312 312 314 314 313 314 316 317 320 318 319 315 317 317 321 324 325 327 327 328 328 329 330 328 327 328 327 328 340 339 338 346 349 352 349 357 352 352 349 346 345
313 311 311 311 312 314 315 313 313 313 314 318 318 319 317 318 319 320 323 323 324 325 326 326 327 331 333 331 334 333 330 334 338 348 351 351 351 353 354 350 352 350 348 349
311 312 309 310 312 313 314 314 316 317 319 319 317 317 318 320 321 322 323 325 326 326 327 329 331 336 339 338 337 334 330 338 349 350 352 352 354 352 352 353 350 346 347 347
311 312 314 312 312 312 314 313 313 313 314 315 316 316 319 320 322 323 322 324 326 324 324 326 332 338 340 340 340 336 333 348 351 352 354 354 354 352 350 348 345 344 343 342
312 314 314 312 311 315 314 316 317 319 316 318 320 321 318 322 323 323 323 324 324 323 323 323 341 342 340 339 339 340 345 350 352 353 353 352 350 349 347 345 344 341 341 338
315 312 315 312 311 315 314 313 314 317 319 317 317 318 320 321 318 317 324 323 322 322 321 324 339 338 343 341 343 347 350 350 351 351 350 349 347 346 345 343 342 340 339 337
313 314 314 316 314 316 315 315 314 317 319 316 314 315 318 317 315 319 319 322 322 321 321 323 328 339 346 345 346 349 349 349 349 348 347 346 345 344 343 341 340 339 336 336
314 317 315 313 313 313 313 314 315 314 312 311 312 313 315 317 316 319 320 320 319 319 320 322 326 340 345 346 346 346 347 347 346 345 345 344 344 342 340 339 337 336 336 335
314 316 315 315 313 312 314 315 312 311 312 310 311 311 313 318 316 318 318 316 317 318 319 320 324 340 346 345 343 346 345 344 344 343 344 343 341 339 337 337 337 336 336 335
316 316 316 315 312 313 314 315 315 316 316 315 317 317 317 315 315 317 319 318 318 319 318 319 324 329 343 342 342 343 343 342 343 341 340 338 337 338 338 337 335 336 335 333
316 317 316 317 315 316 311 314 315 315 315 315 316 316 316 315 317 317 317 318 320 320 319 319 324 343 339 342 341 341 340 340 340 337 336 335 337 338 337 335 334 334 334 331
314 316 318 319 317 315 313 316 319 320 319 316 316 317 317 317 318 319 322 324 325 322 321 320 324 339 341 341 340 340 340 339 336 334 334 335 338 337 337 335 334 335 335 334
315 314 316 316 320 319 320 316 314 314 319 318 317 316 316 316 319 318 320 319 322 325 323 323 326 333 340 341 340 340 339 336 335 333 334 334 336 337 335 336 336 336 336 337
319 316 317 317 319 317 318 315 314 320 318 317 316 315 315 317 316 317 318 317 319 320 324 324 325 333 338 340 340 341 338 335 333 333 333 335 336 335 335 334 335 335 336 336
318 319 322 320 319 320 316 316 316 317 315 314 313 314 314 314 315 315 315 316 317 320 321 322 327 331 338 339 342 341 339 334 333 333 335 337 334 336 335 336 335 336 335 334
319 318 321 319 321 318 318 317 314 315 315 313 312 313 313 314 314 314 314 315 317 319 322 323 328 336 342 340 341 341 337 333 333 334 336 336 336 336 336 336 337 335 334 333
316 315 319 319 318 317 317 316 314 315 314 313 313 312 312 314 314 314 314 315 317 320 322 325 328 340 341 340 340 340 334 332 332 337 337 336 336 335 335 336 335 334 333 333
316 317 317 319 318 316 314 315 315 314 313 312 310 310 312 314 314 313 314 315 318 321 323 328 334 342 341 340 340 339 333 333 334 338 337 337 335 335 335 334 333 333 332 332
317 318 318 320 316 317 315 314 313 312 311 309 310 310 311 312 314 313 314 318 320 321 323 329 333 338 340 342 340 338 332 334 335 336 337 336 335 337 335 332 327 330 329 330
Wind_Speed
10 12 14 17 17 21 22 23 28 27 27 27 23 28 27 26 25 26 21 22 24 23 20 29 27 33 32 28 27 24 21 20 16 17 20 21 20 20 20 20 21 21 23 26
14 15 16 18 19 22 23 25 28 27 26 22 26 31 30 25 25 28 25 21 24 23 21 16 21 20 22 22 23 22 23 22 22 23 25 19 14 20 23 20 19 20 21 22
16 19 20 21 21 23 25 22 24 27 24 22 26 30 30 30 25 25 26 26 23 25 19 21 13 12 19 22 24 25 24 23 24 27 21 19 18 15 12 17 17 19 20 20
15 19 20 18 21 19 21 21 25 26 23 17 21 21 23 23 26 27 24 23 23 23 22 17 13 9 13 18 20 22 25 27 30 31 27 22 18 15 18 18 18 19 18 20
18 18 19 23 21 26 24 21 21 23 22 23 25 16 19 24 27 25 23 21 22 22 24 21 14 12 16 18 23 26 28 32 35 33 30 27 22 20 17 16 20 21 20 21
16 10 18 19 25 28 21 16 21 21 19 20 27 22 23 22 25 25 25 27 20 20 21 23 20 17 18 25 25 30 36 35 40 34 35 29 26 23 19 20 22 19 20 21
16 17 4 9 12 19 14 15 14 16 14 19 25 25 24 20 29 30 24 21 23 21 22 20 20 15 17 19 21 22 25 32 34 33 27 31 24 29 14 28 22 20 22 21
11 15 12 13 15 17 20 19 8 9 15 17 22 14 21 24 34 28 23 10 7 24 20 14 8 6 9 16 22 26 23 24 26 24 24 23 24 22 19 26 22 23 25 27
12 15 20 21 18 13 18 16 18 17 19 14 10 21 23 22 29 22 22 7 3 4 3 5 7 6 7 11 12 21 21 22 23 23 22 22 24 22 22 23 21 26 25 25
16 20 19 20 19 16 19 19 16 6 5 8 14 16 11 21 23 21 22 19 8 6 4 6 8 6 5 10 13 13 23 24 22 20 21 22 22 22 21 21 23 20 23 24
21 12 17 19 19 16 14 15 16 11 10 13 10 11 12 21 18 17 25 13 11 7 8 8 8 3 11 14 22 15 20 22 21 21 22 23 21 23 24 22 19 20 21 23
13 6 15 21 24 14 17 21 1 4 14 11 7 15 11 14 21 27 26 17 14 6 3 6 8 6 10 20 17 17 18 21 22 23 22 22 24 24 22 20 19 19 17 18
5 5 13 13 9 8 10 20 18 6 14 16 14 13 17 24 31 32 13 9 10 5 7 10 7 3 12 10 17 18 20 23 25 24 24 23 23 22 20 20 19 18 16 15
5 13 16 13 19 9 9 19 19 11 9 15 13 18 16 21 24 31 25 8 6 3 9 3 6 1 4 12 17 21 22 25 24 25 24 23 22 22 20 20 19 17 16 15
2 9 15 18 20 23 18 22 23 25 22 17 16 15 6 4 8 19 19 25 2 4 9 6 5 1 5 4 12 21 21 23 23 24 24 22 22 21 19 18 17 17 16 15
6 9 15 20 20 21 19 24 23 20 24 23 19 16 7 20 11 24 25 15 7 6 6 7 8 4 4 4 8 21 23 24 24 25 24 22 20 19 18 19 18 17 16 15
9 7 10 17 16 19 13 1 9 19 23 23 14 16 15 8 9 15 18 14 12 11 6 8 8 2 4 2 8 16 22 24 23 23 22 20 20 19 18 14 18 16 14 14
4 8 6 10 15 12 7 8 11 14 23 21 18 12 11 14 10 10 14 16 16 13 9 5 9 3 7 5 6 16 22 21 22 21 21 21 21 19 16 17 16 15 15 16
8 1 3 4 7 14 18 8 4 8 23 16 14 15 14 16 16 12 10 17 17 15 10 6 12 2 11 11 8 12 18 21 21 20 20 21 25 22 21 19 16 16 15 13
10 5 3 4 4 4 4 7 8 6 14 12 16 18 19 16 7 9 10 19 19 21 10 7 9 10 13 18 18 9 17 18 18 21 20 20 24 26 23 21 15 14 15 12
4 3 5 8 6 7 8 9 4 3 5 11 16 20 20 16 15 17 20 17 17 18 20 16 16 1 9 20 17 8 15 17 20 21 20 16 27 26 22 18 15 15 15 13
4 4 4 4 4 4 6 5 4 6 9 13 21 23 18 18 19 18 18 17 16 19 19 24 15 11 14 21 15 10 13 19 21 21 21 23 26 19 18 17 14 14 15 14
4 5 5 5 4 7 12 15 15 13 13 11 14 17 16 20 15 16 16 17 16 19 15 24 18 6 16 21 18 9 19 19 21 19 27 22 24 20 17 15 14 13 15 15
15 15 9 10 8 7 17 14 9 9 7 15 17 17 18 18 20 20 17 16 16 16 16 22 15 9 11 22 19 16 21 20 20 28 27 22 22 20 17 12 14 15 14 14
14 13 9 16 15 12 10 13 10 15 19 10 11 13 15 16 18 20 16 18 17 16 20 10 11 8 16 22 19 17 23 20 22 29 26 22 22 19 14 11 7 9 7 4
11 9 2 4 17 13 12 14 12 18 10 13 17 16 16 17 20 17 16 17 15 16 15 11 9 13 19 20 22 20 23 19 24 21 24 22 21 18 17 15 15 13 11 10
Wind_Direction
308 301 281 290 285 279 282 278 274 275 286 293 279 263 265 239 232 248 224 235 247 255 235 233 238 221 225 187 173 192 211 229 246 243 228 236 240 236 232 227 230 222 210 199
289 275 284 283 272 264 270 275 275 283 287 289 287 280 278 267 245 230 233 227 247 246 245 242 220 227 177 178 184 195 208 224 250 244 243 231 234 233 223 219 220 213 198 196
298 294 300 296 277 274 273 265 267 274 281 286 281 276 269 270 273 259 227 218 224 247 252 233 230 219 181 180 187 203 216 226 240 233 231 241 247 252 205 198 203 194 196 198
297 293 290 295 294 281 276 274 274 278 280 271 271 275 261 262 261 263 251 223 213 228 244 246 216 217 190 180 197 217 231 233 233 231 226 221 215 212 221 196 188 190 196 204
289 297 308 307 265 263 277 291 285 288 282 279 260 262 264 268 253 252 255 255 212 213 242 244 238 217 217 220 217 220 226 225 222 220 216 218 215 212 208 191 189 181 194 206
282 330 295 298 309 295 276 289 282 282 280 265 264 255 258 253 262 259 229 244 244 211 222 244 244 224 234 238 219 218 224 215 216 213 215 212 217 207 194 187 161 167 183 199
308 306 327 325 275 282 267 262 272 267 261 260 257 248 256 255 257 265 267 240 230 227 224 225 224 231 228 226 231 227 212 203 204 202 205 213 219 205 205 161 161 165 174 189
327 318 340 321 308 309 301 298 276 271 293 302 317 310 253 239 254 265 298 257 270 210 212 213 219 233 239 231 226 222 226 184 189 197 205 206 208 196 177 159 167 163 179 188
297 289 297 298 298 281 290 287 257 251 273 281 261 282 279 273 265 250 248 239 72 37 112 181 221 232 248 247 234 203 197 180 189 193 191 195 193 183 161 167 178 178 181 180
306 300 300 305 294 282 275 282 273 257 276 254 278 249 252 271 268 231 249 261 165 134 204 213 227 241 293 283 268 204 185 181 176 176 182 189 175 170 169 173 164 154 148 157
314 320 308 302 282 299 272 286 248 248 245 277 288 267 6 304 288 270 228 222 143 174 209 231 203 189 244 258 252 177 182 162 160 168 174 165 170 142 139 148 150 144 144 154
333 287 284 298 290 19 4 300 22 214 267 289 255 279 272 335 334 288 216 171 144 141 330 262 105 229 234 226 198 171 168 154 160 163 164 160 138 134 141 144 142 139 145 153
321 295 306 295 272 29 357 302 297 333 274 266 264 281 357 354 345 340 53 95 104 55 335 305 93 244 219 189 148 161 156 158 158 160 150 140 135 139 147 146 143 155 163 174
271 269 267 282 286 269 252 275 279 199 253 267 283 297 358 355 337 322 321 169 103 90 289 6 348 262 229 157 163 159 168 156 160 145 137 138 142 146 149 151 155 166 168 172
243 274 283 280 280 278 265 264 271 269 262 274 281 298 346 202 299 291 295 293 341 290 299 35 351 2 215 34 167 157 153 145 144 140 139 145 144 146 151 152 166 166 168 164
299 283 303 293 289 284 318 299 299 291 293 277 280 283 287 146 187 256 263 294 297 288 326 337 328 9 126 23 295 154 145 148 148 142 140 143 144 148 160 169 165 163 164 173
284 275 293 286 294 312 308 113 347 327 319 324 344 351 346 333 276 309 327 335 326 323 304 296 324 32 232 86 353 130 135 141 141 140 142 147 159 158 151 162 161 163 164 149
250 262 280 279 299 280 287 145 356 291 284 306 333 336 320 306 309 287 315 317 311 304 310 310 301 154 194 188 62 126 134 145 144 144 156 162 155 149 154 160 169 167 164 158
201 205 282 276 269 285 291 325 23 342 300 302 321 341 350 344 337 313 360 0 342 290 299 288 278 106 169 177 153 169 164 158 153 157 162 169 152 160 161 171 182 164 157 156
184 185 232 320 287 282 71 45 360 340 285 8 7 341 335 334 310 270 12 344 333 326 300 275 328 357 188 185 179 209 171 160 163 161 169 176 146 157 162 171 165 157 161 157
218 209 222 241 258 274 155 207 195 228 306 316 316 305 312 303 290 297 301 310 314 312 313 313 295 211 211 195 184 213 172 171 164 163 170 151 132 137 150 160 160 165 161 152
199 272 222 223 249 282 189 305 273 296 318 304 307 301 298 284 281 281 288 294 293 294 297 292 279 226 184 205 187 206 179 174 167 167 139 120 127 127 144 148 154 154 145 143
275 240 269 197 253 299 341 289 224 250 304 302 296 285 281 281 277 275 277 288 279 282 283 280 281 206 168 188 194 207 167 181 163 145 123 127 126 138 148 150 149 149 155 152
297 303 287 291 247 275 285 304 325 330 280 282 276 268 270 268 268 269 268 268 262 260 262 261 259 200 173 187 192 210 167 184 162 128 129 135 130 139 148 157 158 160 176 179
284 293 283 276 285 293 301 331 335 326 318 269 285 280 278 257 252 251 255 254 253 255 253 277 264 187 186 181 197 216 175 181 144 131 134 139 139 151 144 130 154 160 131 170
273 286 269 287 313 301 308 341 352 331 306 309 293 285 273 249 250 244 241 251 261 254 268 278 329 209 184 183 201 191 179 165 138 135 140 150 157 158 146 132 99 117 113 111